Hourly Data Report for October 14, 2016

All times are specified in Local Standard Time (LST). Add 1 hour to adjust for Daylight Saving Time where and when it is observed.

MONCTON INTL A
NEW BRUNSWICK

46°06'44.000" N
64°40'43.000" W
70.70 m
8103201
71705
YQM

Download Data

Hourly Data (October 2016)
Hourly Data Report for October 14, 2016
Temp Definition
°C
Dew Point Temp Definition
°C
Rel Hum Definition
%
Wind Dir Definition
10's deg

Wind Spd Definition
km/h
Visibility Definition
km
Stn Press Definition
kPa
Hmdx Definition


Wind Chill Definition


Weather Definition


TIME
00:00 Legend Double Dagger 12.6 11.2 91 12 5 24.1 100.48     LegendNANA
01:00 Legend Double Dagger 13.8 11.4 85 20 12 24.1 100.44     Rain
02:00 Legend Double Dagger 13.1 12.0 93 20 8 24.1 100.43     Rain
03:00 Legend Double Dagger 13.3 12.5 95 21 11 12.9 100.43     Rain
04:00 Legend Double Dagger 13.2 12.7 97 24 15 19.3 100.46     Rain
05:00 Legend Double Dagger 13.2 12.6 96 25 17 24.1 100.51     Cloudy
06:00 Legend Double Dagger 12.5 11.4 93 28 17 24.1 100.61     LegendNANA
07:00 Legend Double Dagger 8.8 7.6 92 28 24 24.1 100.80     LegendNANA
08:00 Legend Double Dagger 7.2 5.0 86 30 17 24.1 100.97     Mostly Cloudy
09:00 Legend Double Dagger 7.3 3.6 77 29 22 24.1 101.07     LegendNANA
10:00 Legend Double Dagger 8.6 2.9 67 29 20 24.1 101.13     LegendNANA
11:00 Legend Double Dagger 9.2 1.9 60 32 26 24.1 101.17     Mainly Clear
12:00 Legend Double Dagger 10.4 0.2 49 32 30 24.1 101.22     LegendNANA
13:00 Legend Double Dagger 10.9 0.1 47 31 24 24.1 101.22     LegendNANA
14:00 Legend Double Dagger 10.7 -0.1 47 34 23 24.1 101.25     Clear
15:00 Legend Double Dagger 10.7 -1.3 43 33 22 24.1 101.30     LegendNANA
16:00 Legend Double Dagger 9.7 -1.0 47 31 24 24.1 101.38     LegendNANA
17:00 Legend Double Dagger 8.3 -1.5 50 32 17 24.1 101.45     Clear
18:00 Legend Double Dagger 6.0 -1.4 59 33 16 24.1 101.53     LegendNANA
19:00 Legend Double Dagger 4.4 -1.8 64 33 10 24.1 101.62     LegendNANA
20:00 Legend Double Dagger 3.2 -1.7 70 33 9 24.1 101.70     Mainly Clear
21:00 Legend Double Dagger 2.4 -2.3 71 34 13 24.1 101.76     LegendNANA
22:00 Legend Double Dagger 2.2 -2.5 71 31 10 24.1 101.79     LegendNANA
23:00 Legend Double Dagger 2.1 -2.4 72 32 10 24.1 101.79     Mostly Cloudy

Notes on Data Quality.

Legend

  • E = Estimated
  • M = Missing
  • NA = Not Available
  • ‡ = Partner data that is not subject to review by the National Climate Archives
Date modified: